Weather History for KBXK - June, 2013

Change the Weather History Date:

Tuesday, June 11, 2013

  Actual Average (KGYR) Record (KGYR)
Temperature  
Mean Temperature 94 °F -  
Max Temperature 107 °F 99 °F 109 °F (2013)
Min Temperature 80 °F 69 °F 66 °F (2000)
Cooling Degree Days 28    
Growing Degree Days 44 (Base 50)    
Moisture  
Dew Point 30 °F    
Average Humidity 9    
Maximum Humidity 16    
Minimum Humidity 7    
Precipitation  
Precipitation 0.00 in - - ()
Sea Level Pressure  
Sea Level Pressure 29.80 in    
Wind  
Wind Speed 5 mph (SW)    
Max Wind Speed 12 mph    
Max Gust Speed 17 mph    
Visibility 10 miles    
Events      
Averages and records for this station are not official NWS values.
T = Trace of Precipitation, MM = Missing Value Source: NWS Daily Summary

Daily Weather History Graph

Daily Weather History Graph

Search for Another Location

Airport or City:

Trip Planner

Search our weather history database for the weather conditions in past years. The results will help you decide how hot, cold, wet, or windy it might be!

Date:

Astronomy

Jun. 11, 2013 Rise Set
Actual Time 5:20 AM MST 7:40 PM MST
Civil Twilight 4:51 AM MST 8:09 PM MST
Nautical Twilight 4:16 AM MST 8:44 PM MST
Astronomical Twilight 3:37 AM MST 9:23 PM MST
Moon 8:01 AM MST (6/11) 9:53 PM MST (6/11)
Length of Visible Light 15h 17m
Length of Day
14h 20m
Waxing Crescent, 9% of the Moon is Illuminated
Jun 11
Waxing Crescent
Jun 16
First Quarter
Jun 23
Full
Jun 29
Last Quarter
Jul 8
New

Hourly Weather History & Observations

Time (MST) Temp. Dew Point Humidity Pressure Visibility Wind Dir Wind Speed Gust Speed Precip Events Conditions
12:15 AM 80.6 °F 10.4 °F 7% 29.79 in 10.0 mi Calm Calm - N/A   Clear
12:35 AM 86.0 °F 17.6 °F 8% 29.79 in 10.0 mi SSW 4.6 mph - N/A   Clear
9:15 AM 91.4 °F 32.0 °F 12% 29.88 in 10.0 mi SE 4.6 mph - N/A   Clear
10:55 AM 95.0 °F 28.4 °F 9% 29.88 in 10.0 mi SW 3.5 mph - N/A   Clear
11:15 AM 98.6 °F 26.6 °F 8% 29.87 in 10.0 mi WSW 3.5 mph - N/A   Clear
11:35 AM 98.6 °F 26.6 °F 8% 29.87 in 10.0 mi Calm Calm - N/A   Clear
11:55 AM 100.4 °F 26.6 °F 7% 29.87 in 10.0 mi SW 4.6 mph - N/A   Clear
12:15 PM 100.4 °F 26.6 °F 7% 29.86 in 10.0 mi SSW 3.5 mph - N/A   Clear
12:35 PM 100.4 °F 28.4 °F 8% 29.86 in 10.0 mi WSW 5.8 mph - N/A   Clear
12:55 PM 100.4 °F 28.4 °F 8% 29.85 in 10.0 mi SE 5.8 mph - N/A   Clear
1:15 PM 102.2 °F 32.0 °F 9% 29.83 in 10.0 mi SSE 6.9 mph - N/A   Clear
1:35 PM 104.0 °F 28.4 °F 7% 29.83 in 10.0 mi WNW 5.8 mph - N/A   Clear
1:55 PM 104.0 °F 28.4 °F 7% 29.82 in 10.0 mi WSW 4.6 mph - N/A   Clear
2:15 PM 104.0 °F 28.4 °F 7% 29.81 in 10.0 mi SW 6.9 mph - N/A   Clear
2:35 PM 104.0 °F 32.0 °F 8% 29.81 in 10.0 mi SSW 6.9 mph - N/A   Clear
2:55 PM 104.0 °F 30.2 °F 8% 29.80 in 10.0 mi WNW 5.8 mph - N/A   Clear
3:15 PM 107.6 °F 32.0 °F 7% 29.79 in 10.0 mi SSW 6.9 mph - N/A   Clear
3:35 PM 107.6 °F 30.2 °F 7% 29.79 in 10.0 mi SW 10.4 mph 17.3 mph N/A   Clear
3:55 PM 107.6 °F 30.2 °F 7% 29.78 in 10.0 mi WSW 10.4 mph - N/A   Clear
4:15 PM 105.8 °F 30.2 °F 7% 29.77 in 10.0 mi WSW 4.6 mph - N/A   Clear
4:35 PM 107.6 °F 30.2 °F 7% 29.77 in 10.0 mi West 11.5 mph - N/A   Clear
4:55 PM 105.8 °F 30.2 °F 7% 29.76 in 10.0 mi West 11.5 mph - N/A   Clear
5:15 PM 105.8 °F 30.2 °F 7% 29.76 in 10.0 mi WSW 9.2 mph - N/A   Clear
5:35 PM 104.0 °F 32.0 °F 8% 29.75 in 10.0 mi WSW 9.2 mph - N/A   Clear
5:55 PM 104.0 °F 32.0 °F 8% 29.75 in 10.0 mi WSW 6.9 mph - N/A   Clear
6:15 PM 104.0 °F 30.2 °F 8% 29.75 in 10.0 mi WSW 10.4 mph - N/A   Clear
6:35 PM 102.2 °F 32.0 °F 9% 29.76 in 10.0 mi WSW 5.8 mph - N/A   Clear
6:55 PM 100.4 °F 33.8 °F 10% 29.76 in 10.0 mi West 6.9 mph - N/A   Clear
7:15 PM 100.4 °F 32.0 °F 9% 29.76 in 10.0 mi West 6.9 mph - N/A   Clear
7:35 PM 98.6 °F 32.0 °F 10% 29.76 in 10.0 mi WSW 5.8 mph - N/A   Clear
7:55 PM 93.2 °F 35.6 °F 13% 29.77 in 10.0 mi SSW 4.6 mph - N/A   Clear
8:15 PM 95.0 °F 32.0 °F 11% 29.77 in 10.0 mi SW 3.5 mph - N/A   Clear
8:35 PM 95.0 °F 32.0 °F 11% 29.78 in 10.0 mi Calm Calm - N/A   Partly Cloudy
8:55 PM 93.2 °F 30.2 °F 11% 29.78 in 10.0 mi Calm Calm - N/A   Partly Cloudy
9:15 PM 95.0 °F 28.4 °F 9% 29.79 in 10.0 mi WSW 3.5 mph - N/A   Clear
9:35 PM 91.4 °F 32.0 °F 12% 29.80 in 10.0 mi WSW 6.9 mph - N/A   Partly Cloudy
9:55 PM 91.4 °F 32.0 °F 12% 29.80 in 10.0 mi Calm Calm - N/A   Clear
10:15 PM 89.6 °F 37.4 °F 16% 29.81 in 10.0 mi South 3.5 mph - N/A   Partly Cloudy
10:35 PM 89.6 °F 35.6 °F 15% 29.80 in 10.0 mi Calm Calm - N/A   Partly Cloudy
10:55 PM 89.6 °F 32.0 °F 13% 29.80 in 10.0 mi Calm Calm - N/A   Partly Cloudy
11:15 PM 89.6 °F 28.4 °F 11% 29.81 in 10.0 mi North 10.4 mph - N/A   Clear
11:35 PM 87.8 °F 28.4 °F 12% 29.81 in 10.0 mi NNE 3.5 mph - N/A   Clear
11:55 PM 87.8 °F 26.6 °F 11% 29.81 in 10.0 mi Calm Calm - N/A   Clear